#timestamp,LO_Frequency,Hit 
1500505215.4,286047000.1,N
1500505235.2,286047002.0,N
1500505255.1,286047002.3,N
1500505256.0,286047002.3,N
1500505275.8,286047001.7,N
1500505295.7,286047002.8,N
1500505315.5,286047002.4,N
1500505335.3,286047002.6,N
1500505355.2,286047002.5,N
1500505375.0,286047002.3,N
1500505375.9,286047002.3,N
1500505395.8,286047002.0,N
1500505415.6,286046998.1,N
1500505435.4,286047001.0,N
1500505455.3,286047001.0,N
1500505475.1,286047000.3,N
1500505495.8,286047000.4,N
1500505515.7,286047000.6,N
1500505535.5,286046999.7,N
1500505555.4,286047002.3,N
1500505575.2,286047002.6,N
1500505595.0,286047002.1,N
1500505595.9,286047002.1,N
1500505615.8,286046999.7,N
1500505635.6,286047000.0,N
1500505655.4,286047000.8,N
1500505675.3,286047000.4,N
1500505695.1,286047000.2,N
1500505715.9,286047002.3,N
1500505735.7,286047002.6,N
1500505755.5,286046999.9,N
1500505775.4,286046999.8,N
1500505795.2,286046999.9,N
1500505815.0,286047000.5,N
1500505815.9,286047000.5,N
1500505835.8,286047000.7,N
1500505855.6,286047000.5,N
1500505875.5,286047000.8,N
1500505895.3,286047000.5,N
1500505915.1,286047001.9,N
1500505935.9,286046999.8,N
1500505955.7,286047002.1,N
1500505975.5,286047002.4,N
1500505995.4,286046999.7,N
1500506015.2,286047002.2,N
1500506035.1,286046999.9,N
1500506036.0,286046999.9,N
1500506055.8,286046998.8,N
1500506075.6,286047000.8,N
1500506095.5,286047002.7,N
1500506115.3,286047000.6,N
1500506135.1,286047001.0,N
1500506155.9,286047000.6,N
1500506175.7,286047001.6,N
1500506195.6,286047000.1,N
1500506215.4,286047002.4,N
1500506235.2,286047002.3,N
1500506255.1,286047001.8,N
1500506256.0,286047001.8,N
1500506275.8,286047002.6,N
1500506295.7,286047001.5,N
1500506315.5,286047002.5,N
1500506335.3,286047002.0,N
1500506355.2,286047002.7,N
1500506375.0,286047004.3,N
1500506375.9,286047004.3,N
1500506395.7,286047001.4,N
1500506415.6,286047001.9,N
1500506435.4,286047002.6,N
1500506455.3,286046999.7,N
1500506475.1,286047001.5,N
1500506476.0,286047001.5,N
1500506495.8,286047004.0,N
1500506515.7,286047003.1,N
1500506535.5,286047000.2,N
1500506555.3,286047002.3,N
1500506575.2,286047002.3,N
1500506595.0,286047001.7,N
1500506595.9,286047001.7,N
1500506615.8,286047002.2,N
1500506635.6,286047002.3,N
1500506655.4,286047000.4,N
1500506675.3,286046999.8,N
1500506695.1,286047002.5,N
1500506715.9,286047001.9,N
1500506735.7,286047000.4,N
1500506755.5,286046999.9,N
1500506775.4,286047000.2,N
1500506795.2,286047002.4,N
1500506815.0,286047000.4,N
1500506815.9,286047000.4,N
1500506835.8,286046998.6,N
1500506855.6,286046998.6,N
1500506875.5,286047000.5,N
1500506895.3,286047000.0,N
1500506915.1,286047000.0,N
1500506935.9,286047000.2,N
1500506955.7,286047002.4,N
1500506975.5,286047002.0,N
1500506995.4,286047001.3,N
1500507015.2,286047000.3,N
1500507035.1,286047002.4,N
1500507036.0,286047002.4,N
1500507055.8,286047002.6,N
1500507075.6,286047002.7,N
1500507095.5,286047002.3,N
1500507115.3,286047002.1,N
1500507135.1,286047002.0,N
1500507155.9,286047002.9,N
1500507175.7,286047004.4,N
1500507195.6,286047004.3,N
1500507215.4,286047001.3,N
1500507235.2,286047004.3,N
1500507255.1,286047003.2,N
1500507256.0,286047003.2,N
1500507275.8,286047003.1,N
1500507295.7,286047003.8,N
1500507315.5,286047002.0,N
1500507335.3,286047001.7,N
1500507355.2,286047001.6,N
1500507375.9,286047001.6,N
1500507395.7,286047001.7,N
1500507415.6,286047002.0,N
1500507435.4,286047001.4,N
1500507455.2,286047003.8,N
1500507475.1,286047005.7,N
1500507476.0,286047005.7,N
1500507495.8,286047005.7,N
1500507515.7,286047003.2,N
1500507535.5,286047005.9,N
1500507555.3,286047004.2,N
1500507575.2,286047001.4,N
1500507595.0,286047001.5,N
1500507595.9,286047001.5,N
1500507615.8,286047003.5,N
1500507635.6,286047005.8,N
1500507655.4,286047003.1,N
1500507675.3,286047001.5,N
1500507695.1,286047004.2,N
1500507715.8,286047004.8,N
1500507735.7,286047003.7,N
1500507755.5,286047004.0,N
1500507775.4,286047003.1,N
1500507795.2,286047002.9,N
1500507815.0,286047003.3,N
1500507815.9,286047003.3,N
1500507835.8,286047003.4,N
1500507855.6,286047001.3,N
1500507875.4,286047003.8,N
1500507895.3,286047001.5,N
1500507915.1,286047001.5,N
1500507935.9,286047003.8,N
1500507955.7,286047003.5,N
1500507975.5,286047001.6,N
1500507995.4,286047003.2,N
1500508015.2,286047003.6,N
1500508035.0,286047003.7,N
1500508035.9,286047003.7,N
1500508055.8,286047003.2,N
1500508075.6,286047003.7,N
1500508095.5,286047003.2,N
1500508115.3,286047004.1,N
1500508135.1,286047006.0,N
1500508155.9,286047005.8,N
1500508175.7,286047005.3,N
1500508195.5,286047003.3,N
1500508215.4,286047003.2,N
1500508235.2,286047003.9,N
1500508255.1,286047004.2,N
1500508256.0,286047004.2,N
1500508275.8,286047003.5,N
1500508295.6,286047003.7,N
1500508315.5,286047003.8,N
1500508335.3,286047005.6,N
1500508355.1,286047005.6,N
1500508375.9,286047007.6,N
1500508395.7,286047007.3,N
1500508415.6,286047005.1,N
1500508435.4,286047007.3,N
1500508455.2,286047006.9,N
1500508475.1,286047005.0,N
1500508476.0,286047005.0,N
1500508495.8,286047003.3,N
1500508515.7,286047004.5,N
1500508535.5,286047007.2,N
1500508555.3,286047007.2,N
1500508575.2,286047006.8,N
1500508595.9,286047009.2,N
1500508615.7,286047010.6,N
1500508635.6,286047007.8,N
1500508655.4,286047008.0,N
1500508675.2,286047012.4,N
1500508695.1,286047007.9,N
1500508696.0,286047007.9,N
1500508715.8,286047007.7,N
1500508735.7,286047006.9,N
1500508755.5,286047007.4,N
1500508775.3,286047004.5,N
1500508795.2,286047007.0,N
